Regional Weather Roundup
Issued by NWS Sioux Falls, SD

Home | Current Version | Previous Version | Graphics & Text | Print | Product List | Glossary Off
Versions: 1 2 3 4 5 6 7 8 9 10 11 12 13 14 15 16 17 18 19 20 21 22 23 24 25 26 27 28 29 30 31 32 33 34 35 36 37 38 39 40 41 42 43 44 45 46 47 48 49 50

000
ASUS43 KFSD 220610
RWRFSD

WEATHER ROUNDUP FOR SE SOUTH DAKOTA/SW MINNESOTA/NW IOWA
NATIONAL WEATHER SERVICE SIOUX FALLS SD
100 AM CDT WED MAR 22 2017

NOTE: "FAIR" INDICATES FEW OR NO CLOUDS BELOW 12,000 FEET WITH NO
SIGNIFICANT WEATHER AND OR OBSTRUCTIONS TO VISIBILITY.


SDZ038>040-050-052>070-220700-
SOUTHEAST SOUTH DAKOTA

CITY           SKY/WX    TMP DP  RH WIND       PRES   REMARKS
BROOKINGS      CLEAR     22  16  78 NE3       30.47S
CHAMBERLAIN    CLOUDY    33  24  68 E10       30.41F WCI  25
6HR MIN TEMP:  33; 6HR MAX TEMP:  37;

HURON          CLOUDY    26  18  71 E10       30.47F WCI  16
6HR MIN TEMP:  26; 6HR MAX TEMP:  34;

MADISON        FAIR      23  23 100 E9        30.46F WCI  13
MITCHELL       MOCLDY    29  20  69 E12       30.47F WCI  19
6HR MIN TEMP:  29; 6HR MAX TEMP:  37;

SIOUX FALLS    PTCLDY    25  20  81 NE8       30.47F WCI  16
6HR MIN TEMP:  24; 6HR MAX TEMP:  35;

WINNER         CLOUDY    31  25  78 SE14      30.38F WCI  21
YANKTON        CLOUDY    30  19  64 NE14      30.45F WCI  20
$$

MNZ071-072-080-081-089-090-097-098-220700-
SOUTHWEST MINNESOTA

CITY           SKY/WX    TMP DP  RH WIND       PRES   REMARKS
FAIRMONT       CLEAR     26  16  65 NE6       30.50R WCI  19
JACKSON        CLEAR     27  18  69 NE10      30.48F WCI  17
LUVERNE        CLOUDY    25  18  74 NE3       30.49S
MARSHALL       CLEAR     22  17  81 NE5       30.51S WCI  16
6HR MIN TEMP:  22; 6HR MAX TEMP:  31;

MONTEVIDEO     CLEAR     19  14  79 E7        30.54S WCI  10
PIPESTONE      CLEAR     25  16  68 NE3       30.46F
REDWOOD FALLS  CLEAR     24   9  52 E6        30.52R WCI  17
TRACY          CLEAR     23  19  84 NE3       30.50S
WINDOM         CLEAR     23  16  74 NE6       30.49S WCI  16
WORTHINGTON    CLEAR     25  18  74 NE8       30.47F WCI  16
$$

IAZ001>003-012>014-020>022-031-032-NEZ013-014-SDZ071-220700-
NORTHWEST IOWA

CITY           SKY/WX    TMP DP  RH WIND       PRES   REMARKS
CHEROKEE       CLOUDY    29  21  72 NE5       30.47S WCI  24
DENISON        PTCLDY    32  23  69 NE8       30.43F WCI  25
ESTHERVILLE    CLEAR     25  18  74 NE9       30.48R WCI  15
LE MARS        PTCLDY    28  23  80 NE6       30.49R WCI  22
ORANGE CITY    CLOUDY    28  23  80 CALM      30.47S
SHELDON        CLOUDY    27  27 100 NE8       30.46S WCI  18
SIOUX CITY     CLOUDY    33  22  63 NE7       30.47S WCI  27
6HR MIN TEMP:  33; 6HR MAX TEMP:  42;

SPENCER        CLEAR     25  19  78 E5        30.48S WCI  19
6HR MIN TEMP:  25; 6HR MAX TEMP:  37;

STORM LAKE     CLOUDY    28  21  74 NE15      30.45F WCI  17
$$

ABBREVIATIONS USED IN REMARKS
   TC - TEMPERATURE IN CELSIUS
  WCI - WIND CHILL INDEX
   HX - HEAT INDEX
  VSB - VISIBILITY





USA.gov is the U.S. government's official web portal to all federal, state and local government web resources and services.